Date String (YYYY-MM-DD hh:mm:ss) UTC,Instrument flags,Ambient pressure (hPa),Sample flow (lpm),Bypass flow (lpm),Sample temperature (°C),Ambient temperature (°C),ASC tube jacket temperature (°C),LED temperature (°C),Box temperature (°C),Sample RH (%),Span deviation,Mass concentration (μg/m³),Mass concentration (μg/m³),Mass concentration (μg/m³)
DateTimeUTC,F1_M11,P_M11,Q1_M11,Q2_M11,T1_M11,T2_M11,T3_M11,T4_M11,T5_M11,U1_M11,ZSPAN_M11,X2_M11,X0_M11,X1_M11
2021-11-18 17:00:00,,0833.3,5.00,0.00,23.8,23.0,00.0,32.7,25.6,09.6,0000.0,0005.05,0014.82,0003.68
2021-11-18 17:01:00,,0833.3,4.99,0.00,23.8,23.0,00.0,32.8,25.6,09.5,0000.0,0004.98,0013.91,0003.68
2021-11-18 17:02:00,,0833.2,5.01,0.00,23.8,23.0,00.0,32.8,25.6,09.6,0000.0,0004.94,0013.38,0003.68
2021-11-18 17:03:00,,0833.1,5.01,0.00,23.8,23.0,00.0,32.8,25.6,09.4,0000.0,0004.94,0013.87,0003.68
2021-11-18 17:04:00,,0833.1,4.99,0.00,23.8,23.0,00.0,32.8,25.7,09.4,0000.0,0004.97,0014.10,0003.67
2021-11-18 17:05:00,,0833.1,5.00,0.00,23.8,23.0,00.0,32.8,25.7,09.3,0000.0,0004.98,0014.15,0003.69
2021-11-18 17:06:00,,0833.2,4.99,0.00,23.8,23.0,00.0,32.8,25.6,09.3,0000.0,0004.95,0014.22,0003.69
2021-11-18 17:07:00,,0833.2,5.00,0.00,23.8,23.1,00.0,32.8,25.6,09.3,0000.0,0004.92,0014.15,0003.68
2021-11-18 17:08:00,,0833.1,5.00,0.00,23.9,23.1,00.0,32.8,25.7,09.3,0000.0,0004.87,0014.12,0003.68
2021-11-18 17:09:00,,0833.2,5.00,0.00,23.9,23.1,00.0,32.8,25.7,09.4,0000.0,0004.80,0013.24,0003.68
2021-11-18 17:10:00,,0833.1,4.99,0.00,23.9,23.1,00.0,32.8,25.7,09.3,0000.0,0004.76,0012.64,0003.67
2021-11-18 17:11:00,,0833.1,5.00,0.00,23.9,23.1,00.0,32.8,25.7,09.3,0000.0,0004.79,0012.08,0003.66
2021-11-18 17:12:00,,0833.1,5.00,0.00,23.9,23.1,00.0,32.8,25.7,09.3,0000.0,0004.84,0012.83,0003.66
2021-11-18 17:13:00,,0833.1,4.99,0.00,23.9,23.1,00.0,32.9,25.8,09.3,0000.0,0004.90,0013.54,0003.66
2021-11-18 17:14:00,,0833.1,5.00,0.00,23.9,23.1,00.0,32.9,25.7,09.3,0000.0,0004.92,0013.56,0003.65
2021-11-18 17:15:00,,0833.0,5.00,0.00,23.9,23.1,00.0,32.9,25.7,09.2,0000.0,0004.89,0013.52,0003.63
2021-11-18 17:16:00,,0833.1,5.02,0.00,23.9,23.1,00.0,32.9,25.7,09.2,0000.0,0004.84,0013.29,0003.62
2021-11-18 17:17:00,,0833.1,5.01,0.00,23.9,23.1,00.0,32.9,25.7,09.2,0000.0,0004.85,0013.55,0003.62
2021-11-18 17:18:00,,0833.1,4.99,0.00,23.9,23.1,00.0,32.9,25.7,09.2,0000.0,0004.86,0013.85,0003.62
2021-11-18 17:19:00,,0833.1,4.99,0.00,23.9,23.0,00.0,32.9,25.7,09.2,0000.0,0004.85,0014.39,0003.63
2021-11-18 17:20:00,,0833.1,4.99,0.00,23.9,23.0,00.0,32.9,25.7,09.2,0000.0,0004.88,0015.63,0003.63
2021-11-18 17:21:00,,0833.1,4.99,0.00,23.9,23.0,00.0,32.9,25.6,09.2,0000.0,0004.91,0015.94,0003.63
2021-11-18 17:22:00,,0833.0,5.00,0.00,23.9,23.0,00.0,32.9,25.6,09.2,0000.0,0004.87,0015.67,0003.64
2021-11-18 17:23:00,,0833.0,5.00,0.00,23.9,23.0,00.0,32.9,25.6,09.2,0000.0,0004.87,0016.02,0003.64
2021-11-18 17:24:00,,0833.0,4.99,0.00,23.9,23.0,00.0,32.9,25.6,09.2,0000.0,0004.87,0016.21,0003.64
2021-11-18 17:25:00,,0833.0,5.01,0.00,23.9,23.0,00.0,32.9,25.6,09.2,0000.0,0004.87,0016.53,0003.64
2021-11-18 17:26:00,,0833.1,5.00,0.00,23.9,23.0,00.0,32.9,25.6,09.1,0000.0,0004.81,0016.85,0003.63
2021-11-18 17:27:00,,0833.0,5.01,0.00,23.9,23.0,00.0,32.8,25.6,09.1,0000.0,0004.82,0017.37,0003.62
2021-11-18 17:28:00,,0833.0,4.98,0.00,23.9,23.0,00.0,32.9,25.6,09.1,0000.0,0004.85,0017.44,0003.61
2021-11-18 17:29:00,,0833.0,5.01,0.00,23.9,23.0,00.0,32.9,25.6,09.1,0000.0,0004.83,0017.07,0003.59
2021-11-18 17:30:00,,0833.0,5.01,0.00,23.9,23.0,00.0,32.9,25.7,09.1,0000.0,0004.83,0016.27,0003.58
2021-11-18 17:31:00,,0833.0,4.99,0.00,23.9,23.0,00.0,32.9,25.6,09.0,0000.0,0004.85,0015.07,0003.57
2021-11-18 17:32:00,,0833.1,5.01,0.00,23.9,23.0,00.0,32.9,25.6,09.1,0000.0,0004.80,0014.40,0003.56
2021-11-18 17:33:00,,0833.1,4.99,0.00,23.9,23.0,00.0,32.8,25.6,09.1,0000.0,0004.81,0014.61,0003.55
2021-11-18 17:34:00,,0832.8,5.00,0.00,23.8,23.0,00.0,32.8,25.6,09.1,0000.0,0004.83,0014.54,0003.55
2021-11-18 17:35:00,,0832.8,5.00,0.00,23.8,22.9,00.0,32.8,25.6,09.1,0000.0,0004.78,0014.17,0003.54
2021-11-18 17:36:00,,0832.8,5.00,0.00,23.8,22.9,00.0,32.8,25.5,09.1,0000.0,0004.73,0013.99,0003.54
2021-11-18 17:37:00,,0832.9,5.00,0.00,23.8,22.9,00.0,32.8,25.5,09.1,0000.0,0004.77,0014.07,0003.55
2021-11-18 17:38:00,,0832.8,5.01,0.00,23.8,22.9,00.0,32.8,25.5,09.2,0000.0,0004.78,0014.18,0003.56
2021-11-18 17:39:00,,0832.7,4.99,0.00,23.8,22.9,00.0,32.8,25.5,09.2,0000.0,0004.82,0014.56,0003.58
2021-11-18 17:40:00,,0832.8,4.99,0.00,23.8,22.9,00.0,32.8,25.5,09.1,0000.0,0004.83,0015.06,0003.59
2021-11-18 17:41:00,,0832.7,5.00,0.00,23.8,22.9,00.0,32.8,25.5,09.1,0000.0,0004.86,0015.31,0003.60
2021-11-18 17:42:00,,0832.8,5.01,0.00,23.8,22.9,00.0,32.8,25.5,09.1,0000.0,0004.84,0015.92,0003.60
2021-11-18 17:43:00,,0832.8,5.00,0.00,23.8,22.9,00.0,32.8,25.5,09.1,0000.0,0004.86,0016.62,0003.61
2021-11-18 17:44:00,,0832.8,4.99,0.00,23.8,22.9,00.0,32.8,25.5,09.1,0000.0,0004.84,0016.62,0003.61
2021-11-18 17:45:00,,0832.8,5.02,0.00,23.8,22.9,00.0,32.8,25.5,09.1,0000.0,0004.81,0016.22,0003.61
2021-11-18 17:46:00,,0832.8,4.99,0.00,23.8,22.9,00.0,32.8,25.5,09.0,0000.0,0004.84,0015.50,0003.62
2021-11-18 17:47:00,,0832.7,5.01,0.00,23.7,22.9,00.0,32.8,25.5,09.0,0000.0,0004.89,0015.41,0003.63
2021-11-18 17:48:00,,0832.7,4.99,0.00,23.7,22.9,00.0,32.8,25.5,09.1,0000.0,0004.91,0015.75,0003.64
2021-11-18 17:49:00,,0832.7,5.00,0.00,23.7,22.9,00.0,32.8,25.5,09.1,0000.0,0004.92,0016.37,0003.65
2021-11-18 17:50:00,,0832.7,5.00,0.00,23.8,22.9,00.0,32.8,25.5,09.1,0000.0,0004.86,0015.82,0003.64
2021-11-18 17:51:00,,0832.7,5.00,0.00,23.8,23.0,00.0,32.8,25.5,09.1,0000.0,0004.85,0015.47,0003.65
2021-11-18 17:52:00,,0832.6,5.01,0.00,23.8,23.0,00.0,32.8,25.5,09.1,0000.0,0004.83,0015.83,0003.66
2021-11-18 17:53:00,,0832.5,5.00,0.00,23.8,23.0,00.0,32.8,25.6,09.1,0000.0,0004.84,0015.85,0003.67
2021-11-18 17:54:00,,0832.6,4.99,0.00,23.8,23.0,00.0,32.8,25.6,09.1,0000.0,0004.81,0015.20,0003.67
2021-11-18 17:55:00,,0832.6,5.02,0.00,23.8,23.0,00.0,32.8,25.6,09.1,0000.0,0004.79,0015.04,0003.65
2021-11-18 17:56:00,,0832.6,4.99,0.00,23.8,23.0,00.0,32.8,25.6,09.0,0000.0,0004.79,0015.23,0003.65
2021-11-18 17:57:00,,0832.5,5.00,0.00,23.8,23.0,00.0,32.8,25.6,08.9,0000.0,0004.78,0016.40,0003.63
2021-11-18 17:58:00,,0832.5,5.01,0.00,23.8,23.1,00.0,32.8,25.6,08.9,0000.0,0004.79,0016.66,0003.63
2021-11-18 17:59:00,,0832.4,5.01,0.00,23.9,23.1,00.0,32.8,25.6,08.8,0000.0,0004.76,0016.00,0003.62
